This demonstration page uses our WeatherBlox Daily Observations layout. Learn more.

Left ArrowRight Arrow

Hourly Observations for December 24, 2016

Temp ( °F °C ) Dew Point ( °F °C ) Humidity (%) Winds ( mph kmh ) Pressure ( in mb ) Visibility ( mi km ) Precip ( " mm )
12:15 am 00:15 Mostly Cloudy 41 5 34 1 76 76 undefined N/A 30.36 1028 10 16 N/A
12:35 am 00:35 Mostly Cloudy 41 5 34 1 76 76 undefined N/A 30.36 1028 10 16 N/A
12:55 am 00:55 Cloudy 41 5 32 undefined 70 70 undefined N/A 30.36 1028 10 16 N/A
1:15 am 01:15 Cloudy 41 5 32 undefined 70 70 undefined N/A 30.33 1027 10 16 N/A
1:35 am 01:35 Mostly Cloudy 41 5 32 undefined 70 70 undefined N/A 30.33 1027 10 16 N/A
1:55 am 01:55 Cloudy 43 6 32 undefined 66 66 undefined N/A 30.33 1027 10 16 N/A
2:15 am 02:15 Cloudy 43 6 32 undefined 66 66 undefined N/A 30.36 1028 10 16 N/A
2:35 am 02:35 Cloudy 43 6 32 undefined 66 66 undefined N/A 30.36 1028 10 16 N/A
2:55 am 02:55 Cloudy 43 6 32 undefined 66 66 undefined N/A 30.33 1027 10 16 N/A
3:15 am 03:15 Cloudy 43 6 32 undefined 66 66 undefined N/A 30.33 1027 10 16 N/A
3:35 am 03:35 Cloudy with Light Rain 43 6 34 1 71 71 undefined N/A 30.30 1026 10 16 N/A
3:55 am 03:55 Cloudy with Rain 41 5 34 1 76 76 undefined N/A 30.30 1026 7 11 0.01 0.25
4:15 am 04:15 Cloudy with Rain 41 5 36 2 81 81 undefined N/A 30.30 1026 3 5 0.03 0.76
4:35 am 04:35 Cloudy with Rain 39 4 37 3 93 93 undefined N/A 30.30 1026 3 5 0.09 2.29
4:55 am 04:55 Cloudy with Light Rain 39 4 37 3 93 93 undefined N/A 30.30 1026 3 5 0.16 4.06
5:15 am 05:15 Cloudy with Light Rain 39 4 37 3 93 93 undefined N/A 30.30 1026 3 5 0.05 1.27
5:35 am 05:35 Cloudy with Rain 37 3 37 3 100 100 undefined N/A 30.27 1025 3 5 0.11 2.79
5:55 am 05:55 Cloudy with Rain 37 3 37 3 100 100 undefined N/A 30.27 1025 4 6 0.13 3.30
6:15 am 06:15 Cloudy with Rain 37 3 37 3 100 100 undefined N/A 30.27 1025 4 6 0.03 0.76
6:35 am 06:35 Cloudy with Light Rain 37 3 37 3 100 100 undefined N/A 30.27 1025 4 6 0.06 1.52
6:55 am 06:55 Cloudy with Light Rain 37 3 37 3 100 100 undefined N/A 30.24 1024 4 6 0.08 2.03
7:15 am 07:15 Cloudy with Light Rain 39 4 39 4 100 100 undefined N/A 30.24 1024 3 5 0.02 0.51
7:35 am 07:35 Cloudy with Light Rain 39 4 39 4 100 100 undefined N/A 30.24 1024 5 8 0.03 0.76
7:55 am 07:55 Cloudy with Light Rain 39 4 39 4 100 100 undefined N/A 30.24 1024 4 6 0.06 1.52
8:15 am 08:15 Cloudy with Rain 39 4 39 4 100 100 undefined N/A 30.21 1023 5 8 0.01 0.25
8:35 am 08:35 Cloudy with Light Rain 39 4 39 4 100 100 undefined N/A 30.21 1023 3 5 0.02 0.51
8:55 am 08:55 Cloudy with Light Rain 39 4 39 4 100 100 undefined N/A 30.21 1023 5 8 0.03 0.76
9:15 am 09:15 Cloudy with Light Rain 41 5 41 5 100 100 undefined N/A 30.21 1023 4 6 0.01 0.25
9:35 am 09:35 Cloudy with Mist and Fog 41 5 41 5 100 100 undefined N/A 30.21 1023 5 8 0.01 0.25
9:55 am 09:55 Cloudy with Mist and Fog 41 5 41 5 100 100 undefined N/A 30.21 1023 5 8 0.01 0.25
10:15 am 10:15 Cloudy with Light Rain 41 5 41 5 100 100 undefined N/A 30.21 1023 5 8 N/A
10:35 am 10:35 Cloudy with Mist and Fog 41 5 41 5 100 100 undefined N/A 30.18 1022 5 8 N/A
10:55 am 10:55 Cloudy with Mist and Fog 41 5 41 5 100 100 undefined N/A 30.21 1023 5 8 N/A
11:15 am 11:15 Cloudy with Mist and Fog 43 6 43 6 100 100 undefined N/A 30.18 1022 5 8 N/A
11:35 am 11:35 Cloudy with Mist and Fog 43 6 43 6 100 100 undefined N/A 30.18 1022 5 8 N/A
11:55 am 11:55 Cloudy with Mist and Fog 43 6 43 6 100 100 undefined N/A 30.18 1022 5 8 N/A
12:15 pm 12:15 Cloudy with Mist and Fog 43 6 43 6 100 100 undefined N/A 30.15 1021 5 8 N/A
12:35 pm 12:35 Cloudy 45 7 45 7 100 100 undefined N/A 30.15 1021 7 11 N/A
12:55 pm 12:55 Cloudy 45 7 45 7 100 100 undefined N/A 30.15 1021 7 11 N/A
1:15 pm 13:15 Cloudy 45 7 45 7 100 100 undefined N/A 30.18 1022 7 11 N/A
1:35 pm 13:35 Cloudy 46 8 46 8 100 100 undefined N/A 30.15 1021 10 16 N/A
1:55 pm 13:55 Cloudy 46 8 46 8 100 100 undefined N/A 30.18 1022 10 16 N/A
2:15 pm 14:15 Cloudy 46 8 46 8 100 100 undefined N/A 30.18 1022 10 16 N/A
2:35 pm 14:35 Cloudy 46 8 46 8 100 100 undefined N/A 30.18 1022 10 16 N/A
2:55 pm 14:55 Cloudy 46 8 46 8 100 100 undefined N/A 30.18 1022 10 16 N/A
3:15 pm 15:15 Cloudy 46 8 46 8 100 100 undefined N/A 30.18 1022 10 16 N/A
3:35 pm 15:35 Cloudy 46 8 46 8 100 100 undefined N/A 30.21 1023 10 16 N/A
3:55 pm 15:55 Partly Cloudy 46 8 46 8 100 100 undefined N/A 30.21 1023 10 16 N/A
4:15 pm 16:15 Partly Cloudy 46 8 46 8 100 100 undefined N/A 30.24 1024 10 16 N/A
4:35 pm 16:35 Mostly Cloudy 46 8 46 8 100 100 undefined N/A 30.24 1024 10 16 N/A
4:55 pm 16:55 Cloudy 46 8 46 8 100 100 undefined N/A 30.24 1024 10 16 N/A
5:15 pm 17:15 Cloudy 46 8 46 8 100 100 undefined N/A 30.24 1024 10 16 N/A
5:35 pm 17:35 Cloudy 46 8 46 8 100 100 undefined N/A 30.27 1025 10 16 N/A
5:55 pm 17:55 Cloudy 45 7 45 7 100 100 undefined N/A 30.27 1025 7 11 N/A
6:15 pm 18:15 Cloudy 45 7 45 7 100 100 undefined N/A 30.27 1025 7 11 N/A
6:35 pm 18:35 Partly Cloudy with Mist and Fog 43 6 43 6 100 100 undefined N/A 30.27 1025 3 5 N/A
6:55 pm 18:55 Cloudy with Fog 43 6 43 6 100 100 undefined N/A 30.27 1025 0 0 N/A
7:15 pm 19:15 Mostly Cloudy with Fog 41 5 41 5 100 100 undefined N/A 30.30 1026 1 1 N/A
7:35 pm 19:35 Cloudy with Fog 41 5 41 5 100 100 undefined N/A 30.30 1026 0 0 N/A
7:55 pm 19:55 Cloudy with Mist and Fog 41 5 41 5 100 100 undefined N/A 30.30 1026 1 1 N/A
8:15 pm 20:15 Cloudy with Fog 37 3 37 3 100 100 undefined N/A 30.30 1026 0 0 N/A
8:35 pm 20:35 Cloudy with Mist and Fog 39 4 39 4 100 100 undefined N/A 30.30 1026 1 1 N/A
8:55 pm 20:55 Partly Cloudy 43 6 43 6 100 100 undefined N/A 30.30 1026 10 16 N/A
9:15 pm 21:15 Partly Cloudy 43 6 43 6 100 100 undefined N/A 30.33 1027 10 16 N/A
9:35 pm 21:35 Mostly Cloudy 45 7 45 7 100 100 undefined N/A 30.33 1027 10 16 N/A
9:55 pm 21:55 Cloudy 45 7 43 6 93 93 undefined N/A 30.33 1027 10 16 N/A
10:15 pm 22:15 Cloudy with Mist and Fog 41 5 41 5 100 100 undefined N/A 30.36 1028 5 8 N/A
10:35 pm 22:35 Cloudy 41 5 41 5 100 100 undefined N/A 30.36 1028 10 16 N/A
10:55 pm 22:55 Cloudy 43 6 43 6 100 100 undefined N/A 30.36 1028 10 16 N/A
11:15 pm 23:15 Cloudy 43 6 43 6 100 100 undefined N/A 30.36 1028 10 16 N/A
11:35 pm 23:35 Cloudy 45 7 45 7 100 100 undefined N/A 30.36 1028 10 16 N/A
11:55 pm 23:55 Cloudy 46 8 45 7 93 93 undefined N/A 30.39 1029 10 16 N/A

Powered by AerisWeather